Weather History for PHNL - March, 2013

Change the Weather History Date:

Saturday, March 30, 2013

  Actual Average Record
Temperature  
Mean Temperature 76 °F 75 °F  
Max Temperature 82 °F 82 °F 86 °F (1961)
Min Temperature 69 °F 69 °F 59 °F (1975)
Degree Days  
Heating Degree Days 0 0  
Month to date heating degree days 0 0  
Since 1 July heating degree days 0 0  
Cooling Degree Days 11 10  
Month to date cooling degree days 252 283  
Year to date cooling degree days 750 765  
Growing Degree Days 24 (Base 50)    
Moisture  
Dew Point 64 °F    
Average Humidity 74    
Maximum Humidity 93    
Minimum Humidity 55    
Precipitation  
Precipitation 0.05 in 0.06 in 2.99 in (2006)
Month to date precipitation 2.95 1.97  
Year to date precipitation 6.02 6.27  
Snow  
Snow 0.00 in - - ()
Month to date snowfall 0.0  
Since 1 July snowfall 0.0  
Snow Depth 0.00 in    
Sea Level Pressure  
Sea Level Pressure 30.02 in    
Wind  
Wind Speed 4 mph (NNE)    
Max Wind Speed 15 mph    
Max Gust Speed 24 mph    
Visibility 10 miles    
Events Rain    
T = Trace of Precipitation, MM = Missing Value Source: NWS Daily Summary

Daily Weather History Graph

Daily Weather History Graph

Search for Another Location

Airport or City:

Trip Planner

Search our weather history database for the weather conditions in past years. The results will help you decide how hot, cold, wet, or windy it might be!

Date:

Astronomy

Mar. 30, 2013 Rise Set
Actual Time 6:26 AM HST 6:46 PM HST
Civil Twilight 6:03 AM HST 7:08 PM HST
Nautical Twilight 5:37 AM HST 7:34 PM HST
Astronomical Twilight 5:11 AM HST 8:00 PM HST
Moon 10:34 PM HST (3/30) 8:59 AM HST (3/30)
Length of Visible Light 13h 04m
Length of Day
12h 19m
Waning Gibbous, 84% of the Moon is Illuminated
Mar 30
Waning Gibbous
Apr 2
Last Quarter
Apr 9
New
Apr 18
First Quarter
Apr 25
Full

Hourly Weather History & Observations

Time (HST) Temp. Heat Index Dew Point Humidity Pressure Visibility Wind Dir Wind Speed Gust Speed Precip Events Conditions
12:53 AM 70.0 °F - 64.0 °F 81% 30.04 in 10.0 mi NNW 4.6 mph - N/A   Scattered Clouds
1:53 AM 70.0 °F - 64.0 °F 81% 30.03 in 10.0 mi NNW 4.6 mph - N/A   Scattered Clouds
2:53 AM 69.1 °F - 64.0 °F 84% 30.01 in 10.0 mi Variable 4.6 mph - N/A   Scattered Clouds
3:53 AM 69.1 °F - 64.9 °F 87% 30.00 in 10.0 mi Calm Calm - N/A   Scattered Clouds
4:53 AM 70.0 °F - 64.0 °F 81% 29.99 in 10.0 mi Calm Calm - N/A   Mostly Cloudy
5:53 AM 70.0 °F - 64.9 °F 84% 30.01 in 10.0 mi NW 3.5 mph - N/A   Mostly Cloudy
6:53 AM 71.1 °F - 64.9 °F 81% 30.04 in 10.0 mi Calm Calm - N/A   Mostly Cloudy
7:53 AM 73.0 °F - 64.9 °F 76% 30.05 in 10.0 mi Variable 3.5 mph - N/A   Mostly Cloudy
8:53 AM 75.0 °F - 64.9 °F 71% 30.06 in 10.0 mi NNW 4.6 mph - N/A   Mostly Cloudy
9:53 AM 77.0 °F - 63.0 °F 62% 30.06 in 10.0 mi Variable 3.5 mph - N/A   Mostly Cloudy
10:53 AM 82.0 °F 83.4 °F 64.0 °F 54% 30.04 in 10.0 mi Variable 3.5 mph - N/A   Mostly Cloudy
11:53 AM 77.0 °F - 66.9 °F 71% 30.04 in 10.0 mi SSW 9.2 mph - N/A   Mostly Cloudy
12:42 PM 71.6 °F - 69.8 °F 94% 30.04 in 6.0 mi East 12.7 mph - 0.05 in Rain Rain
12:53 PM 72.0 °F - 69.1 °F 91% 30.04 in 10.0 mi ENE 11.5 mph - 0.05 in Rain Light Rain
1:02 PM 71.6 °F - 64.4 °F 78% 30.03 in 10.0 mi East 8.1 mph - 0.00 in   Overcast
1:53 PM 75.9 °F - 66.9 °F 74% 30.01 in 10.0 mi NE 9.2 mph - 0.00 in   Mostly Cloudy
2:53 PM 77.0 °F - 68.0 °F 74% 29.98 in 10.0 mi ESE 8.1 mph - N/A   Mostly Cloudy
3:53 PM 78.1 °F - 64.9 °F 64% 29.97 in 10.0 mi NNE 4.6 mph 24.2 mph N/A   Mostly Cloudy
4:53 PM 77.0 °F - 61.0 °F 58% 29.97 in 10.0 mi NNE 11.5 mph - N/A   Mostly Cloudy
5:53 PM 75.0 °F - 61.0 °F 62% 29.98 in 10.0 mi NE 8.1 mph - N/A   Scattered Clouds
6:53 PM 73.0 °F - 62.1 °F 68% 30.00 in 10.0 mi NNE 8.1 mph - N/A   Mostly Cloudy
7:53 PM 72.0 °F - 63.0 °F 73% 30.02 in 10.0 mi North 8.1 mph - N/A   Scattered Clouds
8:53 PM 71.1 °F - 63.0 °F 75% 30.04 in 10.0 mi NNW 5.8 mph - N/A   Scattered Clouds
9:53 PM 70.0 °F - 62.1 °F 76% 30.05 in 10.0 mi NNW 4.6 mph - N/A   Scattered Clouds
10:53 PM 70.0 °F - 61.0 °F 73% 30.05 in 10.0 mi North 8.1 mph - N/A   Partly Cloudy
11:53 PM 69.1 °F - 59.0 °F 70% 30.04 in 10.0 mi NNW 8.1 mph - N/A   Partly Cloudy